Time,TemperatureF,DewpointF,PressureIn,WindDirection,WindDirectionDegrees,WindSpeedMPH,WindSpeedGustMPH,Humidity,HourlyPrecipIn,Conditions,Clouds,dailyrainin,SoftwareType,DateUTC
2013-04-09 00:12:00,64.7,48.0,29.89,ENE,59,0.0,-999.0,55,-99.99,,,0.00,weatherlink.com 1.10,2013-04-09 04:12:00,
2013-04-09 00:27:00,63.4,48.0,29.89,ENE,59,0.0,-999.0,57,-99.99,,,0.00,weatherlink.com 1.10,2013-04-09 04:27:00,
2013-04-09 00:42:00,61.6,47.0,29.89,ENE,59,0.0,-999.0,60,-99.99,,,0.00,weatherlink.com 1.10,2013-04-09 04:42:00,
2013-04-09 00:57:00,60.0,47.0,29.89,ENE,59,0.0,-999.0,63,-99.99,,,0.00,weatherlink.com 1.10,2013-04-09 04:57:00,
2013-04-09 01:12:00,58.3,46.0,29.90,ENE,59,0.0,-999.0,64,-99.99,,,0.00,weatherlink.com 1.10,2013-04-09 05:12:00,
2013-04-09 01:27:00,56.5,46.0,29.89,ENE,59,0.0,-999.0,69,-99.99,,,0.00,weatherlink.com 1.10,2013-04-09 05:27:00,
2013-04-09 01:42:00,55.3,46.0,29.90,ENE,59,0.0,-999.0,71,-99.99,,,0.00,weatherlink.com 1.10,2013-04-09 05:42:00,
2013-04-09 01:57:00,54.2,46.0,29.89,ENE,59,0.0,-999.0,73,-99.99,,,0.00,weatherlink.com 1.10,2013-04-09 05:57:00,
2013-04-09 02:12:00,53.2,45.0,29.90,ENE,59,0.0,-999.0,75,-99.99,,,0.00,weatherlink.com 1.10,2013-04-09 06:12:00,
2013-04-09 02:27:00,52.6,45.0,29.90,ENE,59,0.0,-999.0,76,-99.99,,,0.00,weatherlink.com 1.10,2013-04-09 06:27:00,
2013-04-09 02:42:00,52.2,45.0,29.89,ENE,59,0.0,-999.0,77,-99.99,,,0.00,weatherlink.com 1.10,2013-04-09 06:42:00,
2013-04-09 02:57:00,51.7,45.0,29.89,ENE,59,0.0,-999.0,78,-99.99,,,0.00,weatherlink.com 1.10,2013-04-09 06:57:00,
2013-04-09 03:12:00,51.4,45.0,29.89,ENE,59,0.0,-999.0,79,-99.99,,,0.00,weatherlink.com 1.10,2013-04-09 07:12:00,
2013-04-09 03:27:00,51.0,45.0,29.90,ENE,59,0.0,-999.0,80,-99.99,,,0.00,weatherlink.com 1.10,2013-04-09 07:27:00,
2013-04-09 03:42:00,50.8,45.0,29.90,ENE,59,0.0,-999.0,81,-99.99,,,0.00,weatherlink.com 1.10,2013-04-09 07:42:00,
2013-04-09 03:57:00,50.8,46.0,29.90,ENE,59,0.0,-999.0,82,-99.99,,,0.00,weatherlink.com 1.10,2013-04-09 07:57:00,
2013-04-09 04:12:00,50.7,45.0,29.91,ENE,59,0.0,-999.0,82,-99.99,,,0.00,weatherlink.com 1.10,2013-04-09 08:12:00,
2013-04-09 04:27:00,50.8,46.0,29.91,ENE,59,0.0,-999.0,83,-99.99,,,0.00,weatherlink.com 1.10,2013-04-09 08:27:00,
2013-04-09 04:42:00,50.6,46.0,29.92,ENE,59,0.0,-999.0,83,-99.99,,,0.00,weatherlink.com 1.10,2013-04-09 08:42:00,
2013-04-09 04:58:00,50.4,45.0,29.92,ENE,59,0.0,-999.0,83,-99.99,,,0.00,weatherlink.com 1.10,2013-04-09 08:58:00,
2013-04-09 05:13:00,50.0,45.0,29.92,ENE,59,0.0,-999.0,83,-99.99,,,0.00,weatherlink.com 1.10,2013-04-09 09:13:00,
2013-04-09 05:28:00,49.6,45.0,29.93,ENE,59,0.0,-999.0,83,-99.99,,,0.00,weatherlink.com 1.10,2013-04-09 09:28:00,
2013-04-09 05:43:00,49.1,45.0,29.94,ENE,59,0.0,-999.0,84,-99.99,,,0.00,weatherlink.com 1.10,2013-04-09 09:43:00,
2013-04-09 05:58:00,48.7,44.0,29.94,ENE,59,0.0,-999.0,84,-99.99,,,0.00,weatherlink.com 1.10,2013-04-09 09:58:00,
2013-04-09 06:13:00,48.3,44.0,29.95,ENE,59,0.0,-999.0,85,-99.99,,,0.00,weatherlink.com 1.10,2013-04-09 10:13:00,
2013-04-09 06:28:00,48.0,44.0,29.96,ENE,59,0.0,-999.0,85,-99.99,,,0.00,weatherlink.com 1.10,2013-04-09 10:28:00,
2013-04-09 06:43:00,47.9,44.0,29.96,ENE,59,0.0,-999.0,86,-99.99,,,0.00,weatherlink.com 1.10,2013-04-09 10:43:00,
2013-04-09 06:58:00,48.0,44.0,29.97,ENE,59,0.0,-999.0,87,-99.99,,,0.00,weatherlink.com 1.10,2013-04-09 10:58:00,
2013-04-09 07:13:00,48.3,45.0,29.98,ENE,59,0.0,-999.0,87,-99.99,,,0.00,weatherlink.com 1.10,2013-04-09 11:13:00,
2013-04-09 07:28:00,48.6,45.0,29.98,ENE,59,0.0,-999.0,87,-99.99,,,0.00,weatherlink.com 1.10,2013-04-09 11:28:00,
2013-04-09 07:43:00,49.3,46.0,29.98,ENE,59,0.0,-999.0,88,-99.99,,,0.00,weatherlink.com 1.10,2013-04-09 11:43:00,
2013-04-09 07:58:00,51.1,48.0,29.99,ENE,59,0.0,-999.0,90,-99.99,,,0.00,weatherlink.com 1.10,2013-04-09 11:58:00,
2013-04-09 08:13:00,54.3,51.0,29.99,NE,42,0.0,-999.0,88,-99.99,,,0.00,weatherlink.com 1.10,2013-04-09 12:13:00,
2013-04-09 08:28:00,59.1,53.0,30.00,West,266,3.0,-999.0,80,-99.99,,,0.00,weatherlink.com 1.10,2013-04-09 12:28:00,
2013-04-09 08:43:00,63.8,53.0,29.99,SSW,202,5.0,-999.0,67,-99.99,,,0.00,weatherlink.com 1.10,2013-04-09 12:43:00,
2013-04-09 08:58:00,66.1,53.0,29.99,WNW,296,0.0,-999.0,62,-99.99,,,0.00,weatherlink.com 1.10,2013-04-09 12:58:00,
2013-04-09 09:13:00,67.3,50.0,30.00,SSW,209,2.0,-999.0,54,-99.99,,,0.00,weatherlink.com 1.10,2013-04-09 13:13:00,
2013-04-09 09:28:00,68.1,50.0,30.00,WSW,252,8.0,-999.0,52,-99.99,,,0.00,weatherlink.com 1.10,2013-04-09 13:28:00,
2013-04-09 09:43:00,68.5,50.0,30.00,WNW,290,6.0,-999.0,52,-99.99,,,0.00,weatherlink.com 1.10,2013-04-09 13:43:00,
2013-04-09 09:58:00,69.0,49.0,30.01,West,263,7.0,-999.0,49,-99.99,,,0.00,weatherlink.com 1.10,2013-04-09 13:58:00,
2013-04-09 10:13:00,69.4,47.0,30.01,West,279,5.0,-999.0,45,-99.99,,,0.00,weatherlink.com 1.10,2013-04-09 14:13:00,
2013-04-09 10:28:00,69.9,47.0,30.01,North,355,7.0,-999.0,44,-99.99,,,0.00,weatherlink.com 1.10,2013-04-09 14:28:00,
2013-04-09 11:14:00,71.3,46.0,30.02,West,281,6.0,-999.0,40,-99.99,,,0.00,weatherlink.com 1.10,2013-04-09 15:14:00,
2013-04-09 11:44:00,72.9,46.0,30.01,WNW,291,5.0,-999.0,38,-99.99,,,0.00,weatherlink.com 1.10,2013-04-09 15:44:00,
2013-04-09 11:59:00,73.7,45.0,30.01,West,275,5.0,-999.0,36,-99.99,,,0.00,weatherlink.com 1.10,2013-04-09 15:59:00,
2013-04-09 12:00:00,70.3,53.4,29.90,SW,231,0.0,0.0,55,0.00,,,0.00,Wunderground v.1.15,2013-04-09 16:00:00,
2013-04-09 12:05:00,70.0,54.1,29.89,SW,231,0.0,0.0,57,0.00,,,0.00,Wunderground v.1.15,2013-04-09 16:05:00,
2013-04-09 12:14:00,74.2,45.0,30.01,SSW,196,5.0,-999.0,35,-99.99,,,0.00,weatherlink.com 1.10,2013-04-09 16:14:00,
2013-04-09 12:29:00,74.7,45.0,30.00,West,269,8.0,-999.0,35,-99.99,,,0.00,weatherlink.com 1.10,2013-04-09 16:29:00,
2013-04-09 12:44:00,75.6,45.0,29.99,WSW,254,3.0,-999.0,34,-99.99,,,0.00,weatherlink.com 1.10,2013-04-09 16:44:00,
2013-04-09 12:59:00,76.6,45.0,29.99,NW,319,6.0,-999.0,32,-99.99,,,0.00,weatherlink.com 1.10,2013-04-09 16:59:00,
2013-04-09 13:14:00,76.3,46.0,29.98,West,259,6.0,-999.0,34,-99.99,,,0.00,weatherlink.com 1.10,2013-04-09 17:14:00,
2013-04-09 13:29:00,77.3,45.0,29.98,NW,307,3.0,-999.0,32,-99.99,,,0.00,weatherlink.com 1.10,2013-04-09 17:29:00,
2013-04-09 13:44:00,78.5,45.0,29.97,West,267,6.0,-999.0,31,-99.99,,,0.00,weatherlink.com 1.10,2013-04-09 17:44:00,
2013-04-09 13:59:00,78.9,47.0,29.97,WSW,254,1.0,-999.0,32,-99.99,,,0.00,weatherlink.com 1.10,2013-04-09 17:59:00,
2013-04-09 14:14:00,79.5,45.0,29.96,WSW,255,2.0,-999.0,30,-99.99,,,0.00,weatherlink.com 1.10,2013-04-09 18:14:00,
2013-04-09 14:29:00,80.3,47.0,29.96,WNW,297,3.0,-999.0,31,-99.99,,,0.00,weatherlink.com 1.10,2013-04-09 18:29:00,
2013-04-09 14:44:00,81.1,47.0,29.95,West,281,3.0,-999.0,30,-99.99,,,0.00,weatherlink.com 1.10,2013-04-09 18:44:00,
2013-04-09 14:59:00,81.2,48.0,29.94,SSW,198,4.0,-999.0,31,-99.99,,,0.00,weatherlink.com 1.10,2013-04-09 18:59:00,
2013-04-09 15:14:00,80.9,47.0,29.94,SSW,213,4.0,-999.0,30,-99.99,,,0.00,weatherlink.com 1.10,2013-04-09 19:14:00,
2013-04-09 15:29:00,81.4,49.0,29.93,SSE,164,6.0,-999.0,32,-99.99,,,0.00,weatherlink.com 1.10,2013-04-09 19:29:00,
2013-04-09 15:44:00,82.2,48.0,29.92,West,269,2.0,-999.0,30,-99.99,,,0.00,weatherlink.com 1.10,2013-04-09 19:44:00,
2013-04-09 15:59:00,83.0,49.0,29.91,South,188,1.0,-999.0,30,-99.99,,,0.00,weatherlink.com 1.10,2013-04-09 19:59:00,
2013-04-09 16:14:00,82.9,48.0,29.91,WSW,248,5.0,-999.0,29,-99.99,,,0.00,weatherlink.com 1.10,2013-04-09 20:14:00,
2013-04-09 16:29:00,83.0,47.0,29.90,SSW,209,6.0,-999.0,28,-99.99,,,0.00,weatherlink.com 1.10,2013-04-09 20:29:00,
2013-04-09 16:44:00,83.2,47.0,29.90,West,275,1.0,-999.0,28,-99.99,,,0.00,weatherlink.com 1.10,2013-04-09 20:44:00,
2013-04-09 16:59:00,83.6,48.0,29.89,SW,216,0.0,-999.0,29,-99.99,,,0.00,weatherlink.com 1.10,2013-04-09 20:59:00,
2013-04-09 17:14:00,83.3,49.0,29.90,SW,224,3.0,-999.0,30,-99.99,,,0.00,weatherlink.com 1.10,2013-04-09 21:14:00,
2013-04-09 17:29:00,83.5,48.0,29.89,SSW,205,1.0,-999.0,29,-99.99,,,0.00,weatherlink.com 1.10,2013-04-09 21:29:00,
2013-04-09 17:45:00,82.5,49.0,29.90,SW,232,4.0,-999.0,31,-99.99,,,0.00,weatherlink.com 1.10,2013-04-09 21:45:00,
2013-04-09 18:00:00,82.3,49.0,29.90,SW,228,5.0,-999.0,31,-99.99,,,0.00,weatherlink.com 1.10,2013-04-09 22:00:00,
2013-04-09 18:15:00,81.4,49.0,29.89,SW,225,3.0,-999.0,32,-99.99,,,0.00,weatherlink.com 1.10,2013-04-09 22:15:00,
2013-04-09 18:30:00,80.8,49.0,29.89,SSW,195,1.0,-999.0,33,-99.99,,,0.00,weatherlink.com 1.10,2013-04-09 22:30:00,
2013-04-09 18:45:00,80.0,50.0,29.89,SSW,203,2.0,-999.0,35,-99.99,,,0.00,weatherlink.com 1.10,2013-04-09 22:45:00,
2013-04-09 19:00:00,79.4,51.0,29.89,SW,231,0.0,-999.0,37,-99.99,,,0.00,weatherlink.com 1.10,2013-04-09 23:00:00,
2013-04-09 19:15:00,78.9,53.0,29.89,SW,231,0.0,-999.0,40,-99.99,,,0.00,weatherlink.com 1.10,2013-04-09 23:15:00,
2013-04-09 19:30:00,77.9,52.0,29.89,SW,231,0.0,-999.0,41,-99.99,,,0.00,weatherlink.com 1.10,2013-04-09 23:30:00,
2013-04-09 19:45:00,76.5,52.0,29.89,SW,231,0.0,-999.0,42,-99.99,,,0.00,weatherlink.com 1.10,2013-04-09 23:45:00,
2013-04-09 20:00:00,75.0,53.0,29.90,SW,231,0.0,-999.0,47,-99.99,,,0.00,weatherlink.com 1.10,2013-04-10 00:00:00,
2013-04-09 20:15:00,73.5,53.0,29.91,SW,231,0.0,-999.0,49,-99.99,,,0.00,weatherlink.com 1.10,2013-04-10 00:15:00,
2013-04-09 20:30:00,72.5,53.0,29.91,SW,231,0.0,-999.0,51,-99.99,,,0.00,weatherlink.com 1.10,2013-04-10 00:30:00,
2013-04-09 20:45:00,71.2,53.0,29.90,SW,231,0.0,-999.0,53,-99.99,,,0.00,weatherlink.com 1.10,2013-04-10 00:45:00,
2013-04-09 21:00:00,70.3,53.0,29.89,SW,231,0.0,-999.0,55,-99.99,,,0.00,weatherlink.com 1.10,2013-04-10 01:00:00,
2013-04-09 21:15:00,69.4,53.0,29.89,SW,231,0.0,-999.0,57,-99.99,,,0.00,weatherlink.com 1.10,2013-04-10 01:15:00,
2013-04-09 21:30:00,68.3,53.0,29.88,SW,231,0.0,-999.0,59,-99.99,,,0.00,weatherlink.com 1.10,2013-04-10 01:30:00,
2013-04-09 21:45:00,67.4,53.0,29.87,SW,231,0.0,-999.0,60,-99.99,,,0.00,weatherlink.com 1.10,2013-04-10 01:45:00,
2013-04-09 22:00:00,66.5,52.0,29.86,SW,231,0.0,-999.0,61,-99.99,,,0.00,weatherlink.com 1.10,2013-04-10 02:00:00,
2013-04-09 22:15:00,65.4,52.0,29.86,SW,231,0.0,-999.0,63,-99.99,,,0.00,weatherlink.com 1.10,2013-04-10 02:15:00,
2013-04-09 22:30:00,64.5,52.0,29.85,SW,231,0.0,-999.0,64,-99.99,,,0.00,weatherlink.com 1.10,2013-04-10 02:30:00,
2013-04-09 22:45:00,63.8,52.0,29.85,SW,231,0.0,-999.0,66,-99.99,,,0.00,weatherlink.com 1.10,2013-04-10 02:45:00,
2013-04-09 23:00:00,63.1,51.0,29.84,SW,231,0.0,-999.0,66,-99.99,,,0.00,weatherlink.com 1.10,2013-04-10 03:00:00,
2013-04-09 23:15:00,62.3,52.0,29.84,SW,231,0.0,-999.0,69,-99.99,,,0.00,weatherlink.com 1.10,2013-04-10 03:15:00,
2013-04-09 23:30:00,61.9,52.0,29.83,SW,231,0.0,-999.0,69,-99.99,,,0.00,weatherlink.com 1.10,2013-04-10 03:30:00,
2013-04-09 23:45:00,61.6,52.0,29.83,SW,231,0.0,-999.0,71,-99.99,,,0.00,weatherlink.com 1.10,2013-04-10 03:45:00,